Location: Buckland
(65.9785°N, 161.1281°W)
Time: 05:04:59
(UTC+00:00)

Transit 4A - Pass Details

Date: 27 November 2020
Orbit: 864 x 980 km, 66.8° (Epoch: 26 January)

Event Time Altitude Azimuth Distance (km) Brightness Sun altitude
Rises 00:50:56 0° 286° (WNW) 3,689 11.3 -1.0°
Reaches altitude 10° 00:53:30 10° 286° (WNW) 2,743 10.6 -1.2°
Maximum altitude 00:59:58 88° 198° (SSW) 988 8.2 -1.5°
Drops below altitude 10° 01:06:21 10° 111° (ESE) 2,711 10.2 -1.9°
Sets 01:08:53 0° 111° (ESE) 3,644 10.8 -2.0°
